BON815 VHHH-YPDN

Flight info

Callsign BON815
Flight time 5h 26m
Altitude 35000
Route RAMEN DCT SABNO A583 PALOS/N0447F370 A583 ZAM A461 ADKUL Y95 ANUPA
Aircraft A21N/M-SDE2E3FGHIRWXY/LB1

Departure

Time 2026-04-30 14:11
Airport Hong Kong International Airport (VHHH)

Arrival

Time 2026-04-30 19:37
Airport Darwin International Airport / RAAF Darwin (YPDN)
Time Latitude Longitude Altitude Speed Heading
2026-04-30 13:50 22.31145 113.91819 35 ft 0 kts 251°
2026-04-30 14:02 22.31150 113.91837 34 ft 4 kts 251°
2026-04-30 14:02 22.31159 113.91864 33 ft 4 kts 251°
2026-04-30 14:02 22.31165 113.91890 34 ft 4 kts 289°
2026-04-30 14:02 22.31153 113.91905 31 ft 1 kts 341°
2026-04-30 14:03 22.31130 113.91913 33 ft 2 kts 341°
2026-04-30 14:03 22.31128 113.91914 33 ft 0 kts 341°
2026-04-30 14:04 22.31129 113.91914 33 ft 0 kts 341°
2026-04-30 14:05 22.31133 113.91912 33 ft 1 kts 341°
2026-04-30 14:05 22.31150 113.91906 33 ft 7 kts 341°
2026-04-30 14:05 22.31227 113.91877 35 ft 16 kts 340°
2026-04-30 14:05 22.31353 113.91828 35 ft 21 kts 342°
2026-04-30 14:06 22.31480 113.91784 35 ft 13 kts 340°
2026-04-30 14:06 22.31512 113.91670 35 ft 8 kts 251°
2026-04-30 14:07 22.31436 113.91433 34 ft 25 kts 250°
2026-04-30 14:07 22.31376 113.91251 35 ft 25 kts 250°
2026-04-30 14:07 22.31317 113.91071 35 ft 25 kts 251°
2026-04-30 14:08 22.31204 113.90728 35 ft 24 kts 250°
2026-04-30 14:08 22.31150 113.90559 35 ft 24 kts 251°
2026-04-30 14:08 22.31046 113.90224 34 ft 27 kts 250°
2026-04-30 14:09 22.30982 113.90029 35 ft 27 kts 250°
2026-04-30 14:09 22.30929 113.89852 35 ft 21 kts 268°
2026-04-30 14:09 22.30998 113.89791 33 ft 13 kts 340°
2026-04-30 14:10 22.31079 113.89769 33 ft 10 kts 22°
2026-04-30 14:10 22.31100 113.89818 33 ft 6 kts 75°
2026-04-30 14:10 22.31113 113.89864 33 ft 11 kts 71°
2026-04-30 14:10 22.31178 113.90068 33 ft 54 kts 71°
2026-04-30 14:11 22.31367 113.90654 34 ft 113 kts 70°
2026-04-30 14:11 22.31694 113.91665 37 ft 168 kts 71°
2026-04-30 14:11 22.32095 113.92906 454 ft 175 kts 71°
2026-04-30 14:11 22.32503 113.94143 1065 ft 176 kts 71°
2026-04-30 14:12 22.32912 113.95421 1584 ft 187 kts 72°
2026-04-30 14:12 22.33351 113.96788 2038 ft 199 kts 71°
2026-04-30 14:12 22.33797 113.98253 2521 ft 210 kts 73°
2026-04-30 14:12 22.34049 113.99274 2907 ft 214 kts 77°
2026-04-30 14:13 22.34315 114.01441 3714 ft 221 kts 86°
2026-04-30 14:13 22.34279 114.03113 4330 ft 227 kts 99°
2026-04-30 14:13 22.33630 114.04675 4940 ft 233 kts 131°
2026-04-30 14:13 22.32257 114.05596 5507 ft 237 kts 165°
2026-04-30 14:14 22.30634 114.05957 6141 ft 240 kts 171°
2026-04-30 14:14 22.28975 114.06273 6703 ft 245 kts 172°
2026-04-30 14:14 22.27254 114.06593 7129 ft 257 kts 172°
2026-04-30 14:14 22.25470 114.06919 7732 ft 261 kts 173°
2026-04-30 14:15 22.23673 114.07244 8404 ft 263 kts 174°
2026-04-30 14:15 22.21855 114.07572 9075 ft 266 kts 174°
2026-04-30 14:15 22.20017 114.07902 9737 ft 269 kts 174°
2026-04-30 14:15 22.18163 114.08234 10335 ft 272 kts 175°
2026-04-30 14:16 22.16299 114.08665 10918 ft 278 kts 166°
2026-04-30 14:16 22.14453 114.09419 11325 ft 293 kts 160°
2026-04-30 14:16 22.12553 114.10387 11581 ft 311 kts 157°
2026-04-30 14:16 22.10580 114.11510 11844 ft 329 kts 155°
2026-04-30 14:17 22.08528 114.12725 12093 ft 344 kts 154°
2026-04-30 14:17 22.06389 114.13997 12321 ft 359 kts 154°
2026-04-30 14:17 22.04159 114.15308 12618 ft 369 kts 155°
2026-04-30 14:17 22.01888 114.16626 13072 ft 374 kts 155°
2026-04-30 14:18 21.99573 114.17954 13580 ft 378 kts 155°
2026-04-30 14:18 21.97236 114.19284 14089 ft 381 kts 155°
2026-04-30 14:18 21.92504 114.21961 15046 ft 387 kts 156°
2026-04-30 14:19 21.87703 114.24670 16025 ft 393 kts 156°
2026-04-30 14:19 21.85274 114.26041 16504 ft 395 kts 156°
2026-04-30 14:19 21.82828 114.27421 16976 ft 398 kts 156°
2026-04-30 14:20 21.80367 114.28809 17423 ft 401 kts 156°
2026-04-30 14:20 21.77890 114.30206 17839 ft 404 kts 156°
2026-04-30 14:20 21.72916 114.33009 18570 ft 409 kts 156°
2026-04-30 14:21 21.70381 114.34438 18904 ft 411 kts 156°
2026-04-30 14:21 21.67844 114.35867 19238 ft 412 kts 156°
2026-04-30 14:21 21.62747 114.38736 19876 ft 415 kts 156°
2026-04-30 14:22 21.60179 114.40180 20183 ft 417 kts 156°
2026-04-30 14:22 21.55031 114.43075 20805 ft 420 kts 156°
2026-04-30 14:22 21.52436 114.44533 21101 ft 422 kts 156°
2026-04-30 14:23 21.47210 114.47467 21721 ft 425 kts 156°
2026-04-30 14:23 21.41953 114.50417 22358 ft 428 kts 156°
2026-04-30 14:24 21.36659 114.53385 23011 ft 431 kts 156°
2026-04-30 14:24 21.33991 114.54880 23345 ft 432 kts 156°
2026-04-30 14:25 21.28640 114.57875 23937 ft 436 kts 156°
2026-04-30 14:25 21.23230 114.60901 24453 ft 440 kts 156°
2026-04-30 14:26 21.17770 114.63952 24965 ft 445 kts 156°
2026-04-30 14:26 21.15030 114.65482 25220 ft 447 kts 156°
2026-04-30 14:26 21.09516 114.68560 25742 ft 451 kts 156°
2026-04-30 14:27 21.06732 114.70113 25994 ft 453 kts 156°
2026-04-30 14:27 21.03933 114.71674 26246 ft 455 kts 156°
2026-04-30 14:27 21.01113 114.73246 26491 ft 457 kts 156°
2026-04-30 14:28 20.95446 114.76402 26969 ft 461 kts 156°
2026-04-30 14:28 20.92594 114.77990 27200 ft 463 kts 156°
2026-04-30 14:28 20.89731 114.79584 27437 ft 465 kts 156°
2026-04-30 14:28 20.86859 114.81180 27659 ft 467 kts 156°
2026-04-30 14:29 20.81060 114.84403 27974 ft 473 kts 156°
2026-04-30 14:29 20.76153 114.87128 28341 ft 475 kts 156°
2026-04-30 14:30 20.66334 114.92576 29075 ft 480 kts 156°
2026-04-30 14:31 20.60410 114.95861 29658 ft 480 kts 156°
2026-04-30 14:31 20.54489 114.99139 30201 ft 480 kts 156°
2026-04-30 14:31 20.51528 115.00778 30462 ft 478 kts 156°
2026-04-30 14:32 20.45655 115.04027 31091 ft 474 kts 156°
2026-04-30 14:32 20.42733 115.05642 31364 ft 473 kts 156°
2026-04-30 14:32 20.39814 115.07253 31626 ft 472 kts 156°
2026-04-30 14:33 20.36905 115.08859 31895 ft 471 kts 156°
2026-04-30 14:33 20.31104 115.12060 32420 ft 468 kts 156°
2026-04-30 14:33 20.28217 115.13651 32676 ft 467 kts 156°
2026-04-30 14:34 20.25334 115.15240 32926 ft 466 kts 156°
2026-04-30 14:34 20.22455 115.16826 33177 ft 465 kts 156°
2026-04-30 14:34 20.19581 115.18408 33428 ft 464 kts 156°
2026-04-30 14:34 20.16715 115.19986 33666 ft 463 kts 156°
2026-04-30 14:35 20.11967 115.22598 34068 ft 462 kts 156°
2026-04-30 14:35 20.08159 115.24691 34323 ft 461 kts 157°
2026-04-30 14:35 20.05308 115.26258 34489 ft 460 kts 157°
2026-04-30 14:36 20.03427 115.27291 34599 ft 460 kts 157°
2026-04-30 14:36 19.99660 115.29358 34817 ft 460 kts 157°
2026-04-30 14:36 19.96817 115.30919 34972 ft 460 kts 157°
2026-04-30 14:37 19.92051 115.33532 35016 ft 460 kts 157°
2026-04-30 14:37 19.86368 115.36647 35016 ft 460 kts 157°
2026-04-30 14:38 19.79789 115.40252 35019 ft 457 kts 157°
2026-04-30 14:38 19.74145 115.43340 35021 ft 456 kts 157°
2026-04-30 14:39 19.69422 115.45922 35017 ft 456 kts 157°
2026-04-30 14:39 19.63774 115.49007 35015 ft 456 kts 157°
2026-04-30 14:40 19.55314 115.53625 35015 ft 456 kts 157°
2026-04-30 14:40 19.49675 115.56699 35015 ft 455 kts 156°
2026-04-30 14:41 19.44057 115.59761 35012 ft 454 kts 157°
2026-04-30 14:41 19.38444 115.62817 35013 ft 454 kts 157°
2026-04-30 14:42 19.32830 115.65869 35012 ft 454 kts 156°
2026-04-30 14:42 19.27246 115.68902 35013 ft 454 kts 156°
2026-04-30 14:43 19.21623 115.71955 35011 ft 454 kts 156°
2026-04-30 14:43 19.15997 115.75008 35004 ft 455 kts 156°
2026-04-30 14:44 19.10362 115.78065 35011 ft 455 kts 156°
2026-04-30 14:44 19.04733 115.81116 35006 ft 455 kts 156°
2026-04-30 14:45 18.99106 115.84166 35006 ft 455 kts 156°
2026-04-30 14:45 18.93478 115.87239 35007 ft 455 kts 156°
2026-04-30 14:46 18.87859 115.90323 35008 ft 455 kts 156°
2026-04-30 14:46 18.82243 115.93403 35007 ft 455 kts 156°
2026-04-30 14:47 18.76630 115.96476 35006 ft 455 kts 156°
2026-04-30 14:47 18.71008 115.99550 35007 ft 455 kts 156°
2026-04-30 14:48 18.65386 116.02622 35004 ft 455 kts 156°
2026-04-30 14:48 18.59764 116.05691 35004 ft 455 kts 156°
2026-04-30 14:49 18.54142 116.08758 35004 ft 455 kts 156°
2026-04-30 14:49 18.48525 116.11821 35004 ft 454 kts 156°
2026-04-30 14:50 18.40112 116.16403 35002 ft 454 kts 156°
2026-04-30 14:51 18.31695 116.20982 35002 ft 454 kts 156°
2026-04-30 14:52 18.23319 116.25534 35001 ft 454 kts 156°
2026-04-30 14:52 18.14908 116.30100 34999 ft 453 kts 155°
2026-04-30 14:53 18.06524 116.34648 34999 ft 452 kts 156°
2026-04-30 14:54 17.95338 116.40706 34993 ft 452 kts 156°
2026-04-30 14:55 17.86955 116.45240 34993 ft 452 kts 156°
2026-04-30 14:56 17.75786 116.51275 34994 ft 451 kts 156°
2026-04-30 14:57 17.67424 116.55786 34993 ft 451 kts 156°
2026-04-30 14:58 17.56273 116.61795 34990 ft 450 kts 155°
2026-04-30 14:58 17.47925 116.66288 34990 ft 449 kts 155°
2026-04-30 15:00 17.34043 116.73749 34989 ft 449 kts 156°
2026-04-30 15:01 17.22936 116.79709 34988 ft 449 kts 156°
2026-04-30 15:01 17.14605 116.84175 34985 ft 448 kts 156°
2026-04-30 15:02 17.09058 116.87145 34983 ft 448 kts 156°
2026-04-30 15:03 16.95188 116.94564 34985 ft 448 kts 156°
2026-04-30 15:04 16.81322 117.01969 34977 ft 448 kts 156°
2026-04-30 15:06 16.67462 117.09359 34979 ft 448 kts 156°
2026-04-30 15:07 16.56400 117.15248 34977 ft 448 kts 156°
2026-04-30 15:08 16.45319 117.21141 34977 ft 446 kts 157°
2026-04-30 15:09 16.31491 117.28480 34975 ft 446 kts 157°
2026-04-30 15:10 16.20438 117.34339 34972 ft 446 kts 157°
2026-04-30 15:11 16.03856 117.43115 34969 ft 445 kts 157°
2026-04-30 15:13 15.90052 117.50409 34971 ft 445 kts 157°
2026-04-30 15:14 15.70723 117.60603 34960 ft 445 kts 157°
2026-04-30 15:17 15.45920 117.73651 34959 ft 445 kts 156°
2026-04-30 15:19 15.23841 117.85238 34958 ft 445 kts 156°
2026-04-30 17:39 0.06481 126.03620 34870 ft 443 kts 148°
2026-04-30 17:42 -0.20189 126.19178 34867 ft 444 kts 149°
2026-04-30 17:43 -0.33535 126.26963 34864 ft 444 kts 149°
2026-04-30 17:44 -0.49538 126.36299 34865 ft 444 kts 149°
2026-04-30 17:47 -0.73543 126.50304 34862 ft 444 kts 149°
2026-04-30 17:48 -0.91286 126.60657 34859 ft 444 kts 149°
2026-04-30 17:50 -1.12588 126.73088 34859 ft 446 kts 148°
2026-04-30 17:52 -1.28597 126.82431 34856 ft 445 kts 148°
2026-04-30 17:54 -1.52632 126.96461 34853 ft 444 kts 148°
2026-04-30 17:56 -1.73991 127.08933 34854 ft 444 kts 148°
2026-04-30 17:58 -1.89988 127.18276 34856 ft 444 kts 149°
2026-04-30 18:00 -2.11336 127.30746 34852 ft 444 kts 149°
2026-04-30 18:01 -2.24651 127.38527 34856 ft 443 kts 149°
2026-04-30 18:02 -2.40581 127.47837 34856 ft 443 kts 149°
2026-04-30 18:04 -2.56570 127.57185 34856 ft 443 kts 149°
2026-04-30 18:06 -2.77871 127.69642 34856 ft 443 kts 149°
2026-04-30 18:08 -2.96547 127.80569 34856 ft 445 kts 149°
2026-04-30 18:10 -3.17940 127.93090 34858 ft 447 kts 149°
2026-04-30 18:11 -3.36681 128.04064 34859 ft 447 kts 149°
2026-04-30 18:13 -3.50078 128.11912 34858 ft 447 kts 148°
2026-04-30 18:14 -3.63789 128.19215 34858 ft 448 kts 160°
2026-04-30 18:15 -3.81727 128.24633 35239 ft 449 kts 162°
2026-04-30 18:16 -3.87696 128.26397 35472 ft 448 kts 162°
2026-04-30 18:16 -3.93669 128.28173 35712 ft 447 kts 162°
2026-04-30 18:17 -3.96648 128.29060 35829 ft 447 kts 162°
2026-04-30 18:17 -3.99634 128.29950 35950 ft 447 kts 162°
2026-04-30 18:17 -4.05595 128.31725 36187 ft 447 kts 162°
2026-04-30 18:18 -4.08563 128.32609 36311 ft 446 kts 162°
2026-04-30 18:18 -4.11545 128.33497 36433 ft 446 kts 162°
2026-04-30 18:18 -4.14517 128.34382 36556 ft 445 kts 162°
2026-04-30 18:18 -4.17483 128.35265 36679 ft 444 kts 162°
2026-04-30 18:19 -4.20447 128.36148 36797 ft 444 kts 162°
2026-04-30 18:19 -4.26272 128.37883 36862 ft 445 kts 162°
2026-04-30 18:20 -4.32238 128.39660 36865 ft 444 kts 162°
2026-04-30 18:20 -4.37973 128.41369 36867 ft 445 kts 162°
2026-04-30 18:21 -4.43761 128.43094 36869 ft 445 kts 162°
2026-04-30 18:21 -4.49694 128.44862 36861 ft 444 kts 162°
2026-04-30 18:22 -4.55620 128.46629 36868 ft 445 kts 162°
2026-04-30 18:22 -4.64499 128.49277 36862 ft 444 kts 162°
2026-04-30 18:23 -4.70344 128.51020 36867 ft 444 kts 162°
2026-04-30 18:23 -4.76276 128.52789 36867 ft 444 kts 162°
2026-04-30 18:24 -4.85148 128.55436 36865 ft 444 kts 162°
2026-04-30 18:25 -4.91069 128.57203 36868 ft 444 kts 162°
2026-04-30 18:25 -4.99939 128.59851 36869 ft 443 kts 162°
2026-04-30 18:26 -5.08822 128.62503 36866 ft 444 kts 162°
2026-04-30 18:27 -5.17691 128.65152 36872 ft 444 kts 162°
2026-04-30 18:28 -5.26593 128.67811 36868 ft 445 kts 162°
2026-04-30 18:28 -5.35499 128.70472 36868 ft 446 kts 163°
2026-04-30 18:29 -5.47372 128.74022 36868 ft 447 kts 163°
2026-04-30 18:30 -5.59322 128.77595 36873 ft 447 kts 163°
2026-04-30 18:31 -5.68266 128.80272 36870 ft 447 kts 163°
2026-04-30 18:32 -5.77187 128.82941 36874 ft 447 kts 163°
2026-04-30 18:33 -5.86127 128.85618 36874 ft 447 kts 163°
2026-04-30 18:33 -5.95030 128.88284 36873 ft 447 kts 163°
2026-04-30 18:34 -6.04017 128.90976 36873 ft 448 kts 163°
2026-04-30 18:35 -6.09951 128.92754 36876 ft 448 kts 163°
2026-04-30 18:35 -6.15921 128.94544 36878 ft 448 kts 163°
2026-04-30 18:36 -6.23914 128.96940 36878 ft 448 kts 163°
2026-04-30 18:37 -6.32900 128.99636 36878 ft 450 kts 163°
2026-04-30 18:37 -6.38895 129.01434 36879 ft 450 kts 163°
2026-04-30 18:38 -6.44851 129.03222 36878 ft 450 kts 163°
2026-04-30 18:38 -6.50850 129.05022 36878 ft 450 kts 163°
2026-04-30 18:39 -6.56843 129.06822 36880 ft 449 kts 163°
2026-04-30 18:39 -6.62831 129.08620 36881 ft 450 kts 163°
2026-04-30 18:40 -6.68830 129.10422 36881 ft 449 kts 163°
2026-04-30 18:40 -6.74820 129.12222 36881 ft 449 kts 163°
2026-04-30 18:41 -6.80815 129.14023 36880 ft 450 kts 163°
2026-04-30 18:41 -6.86820 129.15829 36881 ft 450 kts 163°
2026-04-30 18:42 -6.92826 129.17635 36882 ft 451 kts 163°
2026-04-30 18:42 -7.01833 129.20344 36884 ft 450 kts 163°
2026-04-30 18:45 -7.34821 129.30277 36884 ft 450 kts 163°
2026-04-30 18:46 -7.40816 129.32084 36888 ft 450 kts 163°
2026-04-30 18:46 -7.46829 129.33896 36890 ft 452 kts 163°
2026-04-30 18:47 -7.52853 129.35712 36891 ft 451 kts 163°
2026-04-30 18:47 -7.58856 129.37523 36889 ft 451 kts 163°
2026-04-30 18:48 -7.64875 129.39339 36888 ft 451 kts 163°
2026-04-30 18:48 -7.70884 129.41153 36889 ft 452 kts 163°
2026-04-30 18:49 -7.76910 129.42972 36892 ft 452 kts 163°
2026-04-30 18:49 -7.82936 129.44792 36892 ft 452 kts 163°
2026-04-30 18:50 -7.88966 129.46613 36893 ft 452 kts 163°
2026-04-30 18:50 -7.94991 129.48434 36891 ft 453 kts 164°
2026-04-30 18:51 -8.01036 129.50261 36896 ft 454 kts 164°
2026-04-30 18:51 -8.07044 129.52077 36894 ft 453 kts 164°
2026-04-30 18:52 -8.13088 129.53905 36898 ft 454 kts 164°
2026-04-30 18:52 -8.19129 129.55732 36899 ft 453 kts 164°
2026-04-30 18:53 -8.25169 129.57561 36899 ft 453 kts 165°
2026-04-30 18:53 -8.31218 129.59391 36902 ft 454 kts 164°
2026-04-30 18:54 -8.37270 129.61224 36898 ft 455 kts 164°
2026-04-30 18:54 -8.43340 129.63063 36897 ft 455 kts 164°
2026-04-30 18:55 -8.49397 129.64899 36897 ft 455 kts 164°
2026-04-30 18:55 -8.58481 129.67685 36899 ft 455 kts 163°
2026-04-30 18:56 -8.67538 129.70559 36899 ft 455 kts 163°
2026-04-30 18:57 -8.76596 129.73434 36900 ft 455 kts 164°
2026-04-30 18:57 -8.82639 129.75349 36900 ft 455 kts 164°
2026-04-30 18:58 -8.91686 129.78214 36903 ft 455 kts 164°
2026-04-30 18:59 -9.00741 129.81084 36901 ft 454 kts 163°
2026-04-30 19:00 -9.12831 129.84918 36908 ft 455 kts 164°
2026-04-30 19:01 -9.24930 129.88758 36905 ft 455 kts 164°
2026-04-30 19:02 -9.33994 129.91637 36909 ft 456 kts 164°
2026-04-30 19:03 -9.46354 129.93829 36912 ft 452 kts 181°
2026-04-30 19:04 -9.58890 129.93640 36908 ft 452 kts 183°
2026-04-30 19:05 -9.71487 129.93413 36911 ft 453 kts 182°
2026-04-30 19:06 -9.84097 129.93225 36912 ft 453 kts 182°
2026-04-30 19:06 -9.93548 129.93083 36911 ft 453 kts 182°
2026-04-30 19:07 -10.02998 129.92941 36910 ft 453 kts 182°
2026-04-30 19:08 -10.15594 129.92750 36915 ft 452 kts 182°
2026-04-30 19:09 -10.25016 129.92608 36911 ft 451 kts 182°
2026-04-30 19:09 -10.31295 129.92512 36911 ft 451 kts 182°
2026-04-30 19:10 -10.43837 129.92322 36915 ft 451 kts 183°
2026-04-30 19:11 -10.53251 129.92180 36914 ft 450 kts 183°
2026-04-30 19:12 -10.59512 129.92085 36913 ft 450 kts 183°
2026-04-30 19:12 -10.65776 129.91990 36914 ft 450 kts 183°
2026-04-30 19:13 -10.78302 129.91800 36917 ft 451 kts 183°
2026-04-30 19:13 -10.81454 129.91751 36564 ft 453 kts 183°
2026-04-30 19:14 -10.84621 129.91702 35700 ft 458 kts 183°
2026-04-30 19:14 -10.87830 129.91653 34788 ft 464 kts 183°
2026-04-30 19:14 -10.91070 129.91603 33941 ft 468 kts 183°
2026-04-30 19:14 -10.94337 129.91553 33062 ft 470 kts 183°
2026-04-30 19:15 -10.97596 129.91505 32342 ft 468 kts 183°
2026-04-30 19:15 -11.04055 129.91410 31121 ft 459 kts 183°
2026-04-30 19:15 -11.07232 129.91363 30547 ft 455 kts 183°
2026-04-30 19:16 -11.10386 129.91316 29970 ft 451 kts 183°
2026-04-30 19:16 -11.13464 129.91269 29345 ft 446 kts 183°
2026-04-30 19:16 -11.19616 129.91175 28094 ft 438 kts 182°
2026-04-30 19:17 -11.22649 129.91128 27485 ft 433 kts 182°
2026-04-30 19:17 -11.28628 129.91036 26294 ft 427 kts 182°
2026-04-30 19:17 -11.31591 129.90991 25733 ft 423 kts 182°
2026-04-30 19:18 -11.35505 129.90931 24987 ft 418 kts 182°
2026-04-30 19:18 -11.40297 129.90857 24116 ft 412 kts 181°
2026-04-30 19:18 -11.43155 129.90813 23591 ft 408 kts 181°
2026-04-30 19:19 -11.45985 129.90769 22988 ft 405 kts 181°
2026-04-30 19:19 -11.48772 129.90922 22461 ft 399 kts 169°
2026-04-30 19:19 -11.53607 129.93421 21239 ft 391 kts 138°
2026-04-30 19:20 -11.55539 129.95345 20741 ft 386 kts 133°
2026-04-30 19:20 -11.57302 129.97378 20251 ft 380 kts 130°
2026-04-30 19:20 -11.60590 130.01491 19295 ft 369 kts 129°
2026-04-30 19:21 -11.61654 130.02836 18977 ft 366 kts 129°
2026-04-30 19:21 -11.64845 130.06798 18029 ft 357 kts 130°
2026-04-30 19:22 -11.67983 130.10609 17140 ft 344 kts 130°
2026-04-30 19:22 -11.72465 130.16004 16459 ft 317 kts 130°
2026-04-30 19:23 -11.76502 130.20867 15919 ft 283 kts 130°
2026-04-30 19:24 -11.78964 130.23838 15305 ft 273 kts 130°
2026-04-30 19:24 -11.80218 130.25351 14619 ft 285 kts 130°
2026-04-30 19:24 -11.82877 130.28559 13088 ft 307 kts 130°
2026-04-30 19:25 -11.87038 130.33579 11449 ft 305 kts 129°
2026-04-30 19:26 -11.89754 130.36857 10534 ft 299 kts 128°
2026-04-30 19:26 -11.92393 130.40043 9818 ft 286 kts 127°
2026-04-30 19:26 -11.93660 130.41572 9411 ft 280 kts 127°
2026-04-30 19:27 -11.96150 130.44585 8444 ft 276 kts 128°
2026-04-30 19:27 -11.98608 130.47563 7512 ft 272 kts 128°
2026-04-30 19:28 -11.99823 130.49034 7026 ft 272 kts 128°
2026-04-30 19:28 -12.02249 130.51970 6105 ft 269 kts 128°
2026-04-30 19:29 -12.04636 130.54858 5237 ft 263 kts 128°
2026-04-30 19:29 -12.05807 130.56275 4949 ft 260 kts 128°
2026-04-30 19:30 -12.09377 130.60396 4567 ft 259 kts 139°
2026-04-30 19:30 -12.12344 130.62470 4307 ft 254 kts 145°
2026-04-30 19:31 -12.15264 130.64300 3786 ft 242 kts 146°
2026-04-30 19:31 -12.16696 130.65188 3468 ft 240 kts 146°
2026-04-30 19:31 -12.19579 130.66970 3029 ft 251 kts 146°
2026-04-30 19:32 -12.21091 130.67903 3014 ft 256 kts 146°
2026-04-30 19:32 -12.22621 130.68845 3011 ft 257 kts 146°
2026-04-30 19:32 -12.24150 130.69787 3001 ft 257 kts 146°
2026-04-30 19:32 -12.25668 130.70721 3011 ft 258 kts 146°
2026-04-30 19:33 -12.27203 130.71666 2999 ft 257 kts 147°
2026-04-30 19:33 -12.28736 130.72610 3003 ft 258 kts 147°
2026-04-30 19:33 -12.30277 130.73559 2999 ft 257 kts 147°
2026-04-30 19:33 -12.31811 130.74504 2919 ft 257 kts 147°
2026-04-30 19:34 -12.33303 130.75422 2764 ft 244 kts 147°
2026-04-30 19:34 -12.34714 130.76289 2599 ft 230 kts 147°
2026-04-30 19:34 -12.37231 130.77841 2242 ft 190 kts 144°
2026-04-30 19:35 -12.38146 130.78679 2060 ft 164 kts 123°
2026-04-30 19:35 -12.38592 130.79676 1778 ft 149 kts 110°
2026-04-30 19:35 -12.38931 130.80655 1422 ft 141 kts 110°
2026-04-30 19:35 -12.39279 130.81567 1081 ft 136 kts 110°
2026-04-30 19:36 -12.39577 130.82461 850 ft 131 kts 108°
2026-04-30 19:36 -12.39863 130.83345 676 ft 132 kts 109°
2026-04-30 19:36 -12.40459 130.85127 408 ft 132 kts 110°
2026-04-30 19:37 -12.40758 130.86010 247 ft 131 kts 111°
2026-04-30 19:37 -12.41056 130.86862 95 ft 119 kts 111°
2026-04-30 19:37 -12.41266 130.87501 96 ft 69 kts 109°
2026-04-30 19:37 -12.41373 130.87818 95 ft 32 kts 109°
2026-04-30 19:38 -12.41403 130.87954 95 ft 18 kts 79°
2026-04-30 19:38 -12.41315 130.88026 95 ft 15 kts 18°
2026-04-30 19:38 -12.41234 130.88054 95 ft 9 kts 18°
2026-04-30 19:38 -12.41190 130.88069 94 ft 7 kts 18°
2026-04-30 19:39 -12.41141 130.88086 95 ft 8 kts 18°
2026-04-30 19:39 -12.41087 130.88096 93 ft 7 kts 339°
2026-04-30 19:39 -12.41054 130.88065 94 ft 6 kts 303°
2026-04-30 19:39 -12.41038 130.88024 95 ft 9 kts 289°
2026-04-30 19:40 -12.41023 130.87978 93 ft 0 kts 289°
2026-04-30 19:40 -12.41018 130.87962 96 ft 7 kts 289°
2026-04-30 19:40 -12.40995 130.87929 96 ft 4 kts 357°
2026-04-30 19:40 -12.40970 130.87933 94 ft 3 kts 18°
2026-04-30 19:41 -12.40953 130.87939 94 ft 0 kts 19°
2026-04-30 19:41 -12.40945 130.87942 95 ft 2 kts 19°
2026-04-30 19:41 -12.40942 130.87943 95 ft 0 kts 19°